Regional Weather Roundup
Issued by NWS

Home | Current Version | Previous Version | Graphics & Text | Print | Product List | Glossary On
Versions: 1 2 3 4 5 6 7 8 9 10 11 12 13 14 15 16 17 18 19 20 21 22 23 24 25 26 27 28 29 30 31 32 33 34 35 36 37 38 39 40 41 42 43 44 45 46 47 48 49 50
000
ASUS45 KTFX 231410
RWRMT
MONTANA REGIONAL WEATHER ROUNDUP
NATIONAL WEATHER SERVICE GREAT FALLS MT
800 AM MDT TUE MAY 23 2017

NOTE: "FAIR" INDICATES FEW OR NO CLOUDS BELOW 12000 FEET WITH NO
SIGNIFICANT WEATHER AND/OR OBSTRUCTIONS TO VISIBILITY.

MTZ001>007-043-231500-
WEST OF THE DIVIDE

CITY           SKY/WX    TMP DP  RH WIND       PRES   REMARKS
KALISPELL      SUNNY     54  46  74 CALM      30.11S
MISSOULA       SUNNY     50  42  74 CALM      30.18F
BUTTE          CLOUDY    43  35  73 CALM      30.25F
MULLAN PASS    SUNNY     55  36  48 S3        30.20F
ANACONDA         N/A     50  37  62 SE9       30.21F
DEER LODGE       N/A     46  39  76 CALM      30.24S
EUREKA           N/A     55  43  62 CALM      30.10F
HAMILTON         N/A     54  39  58 S7        30.17F
PLAINS           N/A     50  46  85 CALM      30.11F
RONAN            N/A     55  46  71 N5        30.14R
$$

MTZ008-052>055-231500-
SOUTHWEST MONTANA

CITY           SKY/WX    TMP DP  RH WIND       PRES   REMARKS
BOZEMAN        SUNNY     50  40  68 E6        30.23S
DILLON         CLOUDY    48  38  68 S9        30.24F
W YELLOWSTONE  SUNNY     37  32  81 CALM      30.32S
ENNIS          SUNNY     48  36  61 CALM      30.30F
THREE FORKS      N/A     48  43  83 NW1       30.18F
$$

MTZ009-010-012-014-046-048-049-054-231500-
EAST SLOPES AND CENTRAL MONTANA

CITY           SKY/WX    TMP DP  RH WIND       PRES   REMARKS
CUT BANK       MOSUNNY   52  36  54 CALM      30.08F
GREAT FALLS    SUNNY     56  42  59 S9        30.11F
HELENA         CLOUDY    50  43  77 CALM      30.19S
CHOTEAU          N/A     57  45  62 S7        30.11F
CONRAD           N/A     57  50  78 NE1       30.09F
$$

MTZ011-013-016-021-045-047-050-051-231500-
NORTH CENTRAL MONTANA

CITY           SKY/WX    TMP DP  RH WIND       PRES   REMARKS
HAVRE          SUNNY     55  38  52 NE6       30.10F
LEWISTOWN      SUNNY     49  36  61 SE9       30.16F
N BAR RANCH      N/A     50  34  53 CALM      30.21F
CHINOOK          N/A     48  36  61 E7        30.11F
$$

MTZ017>020-022>027-061-062-231500-
NORTHEAST MONTANA

CITY           SKY/WX    TMP DP  RH WIND       PRES   REMARKS
GLASGOW        SUNNY     52  37  56 CALM      30.17S
JORDAN           N/A     51  37  58 W3        30.18S
SIDNEY         SUNNY     50  39  66 S3        30.18S
WOLF POINT     SUNNY     50  35  56 SW3       30.17F
MALTA          SUNNY     46  39  76 CALM      30.15F
PLENTYWOOD       N/A     55  36  47 CALM      30.16S
POPLAR           N/A     50  36  57 CALM      30.17F
SCOBEY           N/A     47  33  58 MISG      30.13F
$$

MTZ028>42-056>058-231500-
SOUTHCENTRAL AND SOUTHEAST MONTANA

CITY           SKY/WX    TMP DP  RH WIND       PRES   REMARKS
BAKER          SUNNY     51  36  56 W3        30.18S
BILLINGS       MOSUNNY   47  39  74 SW13      30.20S
LIVINGSTON     SUNNY     47  39  74 NW6       30.21F
MILES CITY     SUNNY     51  35  54 SW3       30.19S
BIG TIMBER     SUNNY     46  37  71 CALM      30.24S
EKALAKA          N/A     50  40  68 W2        30.14R
FORSYTH          N/A     48  37  66 W6        30.20S
LAUREL           N/A     46  37  70 SW6       30.17F
ROUNDUP          N/A     45  35  67 S6        30.10S
$$

REGIONAL REPORTS...DAKOTAS

CITY           SKY/WX    TMP DP  RH WIND       PRES   REMARKS
WILLISTON      SUNNY     52  37  56 CALM      30.18S
MINOT          SUNNY     55  37  50 N14       30.15R
DICKINSON      SUNNY     51  36  56 NW10      30.14S
BEACH            N/A     52  36  54 CALM      30.21S
TIOGA            N/A     55  36  47 VRB6      30.18S
WATFORD CITY     N/A     50  39  66 CALM      30.17S
BISMARCK       PTSUNNY   56  37  49 N24G31    30.08S
GRAND FORKS    CLOUDY    51  45  79 N20       30.00R
FARGO          CLOUDY    49  46  90 N16G28    29.94R
BUFFALO SD       N/A     52  36  54 NW8       30.10S
RAPID CITY     PTSUNNY   51  37  58 N14       30.15R
$$

REGIONAL REPORTS...WYOMING/IDAHO/WASHINGTON

CITY           SKY/WX    TMP DP  RH WIND       PRES   REMARKS
GILLETTE       SUNNY     51  41  68 NW7       30.21R
SHERIDAN       SUNNY     52  40  63 CALM      30.22S
BUFFALO WY     SUNNY     52  38  58 N3        30.24R
CODY           SUNNY     51  34  52 W5        30.24F HAZE
YELLOWSTONE LA   N/A     34  30  85 CALM      30.36F
IDAHO FALLS    SUNNY     50  40  68 N7        30.23F
SALMON         CLOUDY    48  43  81 CALM      30.22F
BOISE          SUNNY     62  40  44 SE9       30.12R
SPOKANE        MOSUNNY   61  47  59 SE6       30.06S
$$

REGIONAL REPORTS...ALBERTA

CITY           SKY/WX    TMP DP  RH WIND       PRES   REMARKS
EDMONTON       PTSUNNY   63  46  55 SW7       29.84F
CALGARY        PTSUNNY   63  34  34 VRB6      29.97F
LETHBRIDGE     PTSUNNY   59  43  55 SW9       29.99F
MEDICINE HAT   PTSUNNY   61  37  41 S14       30.01F
WATERTON GATE    N/A     63  37  39 SW20G26     N/A
MILK RIVER       N/A     57  37  47 S15         N/A
$$

REGIONAL REPORTS...SASKATCHEWAN

CITY           SKY/WX    TMP DP  RH WIND       PRES   REMARKS
SWIFT CURRENT  SUNNY     59  32  36 SW15      30.10F
REGINA         MOSUNNY   54  32  43 S8        30.14S
SASKATOON      PTSUNNY   57  37  47 SW9       30.08F
CYPRESS HILLS    N/A     50  32  50 S9          N/A
VAL MARIE        N/A     50  39  66 E2          N/A
ROCKGLEN         N/A     57  34  41 W5          N/A
$$



USA.gov is the U.S. government's official web portal to all federal, state and local government web resources and services.